This demonstration page uses our WeatherBlox Daily Observations layout. Learn more.

Left ArrowRight Arrow

Hourly Observations for May 23, 2016

Temp ( °F °C ) Dew Point ( °F °C ) Humidity (%) Winds ( mph kmh ) Pressure ( in mb ) Visibility ( mi km ) Precip ( " mm )
12:52 am 00:52 Clear 62 16.7 51 10.6 67 67 SSE 9 15 29.98 1015 10 16 0.00 0.00
1:52 am 01:52 Clear 63 17.2 51 10.6 65 65 SSE 9 15 29.97 1015 10 16 0.00 0.00
2:52 am 02:52 Clear 62 16.7 51 10.6 67 67 S 10 17 29.94 1014 10 16 0.00 0.00
3:52 am 03:52 Clear 61 16.1 51 10.6 70 70 S 12 19 29.94 1014 10 16 0.00 0.00
4:52 am 04:52 Clear 60 15.6 50 10 70 70 SSE 9 15 29.93 1014 10 16 0.00 0.00
5:52 am 05:52 Clear 61 16.1 49 9.4 65 65 SSE 13 20 29.91 1013 10 16 0.00 0.00
6:52 am 06:52 Sunny 63 17.2 47 8.3 56 56 SSE 13 20 29.92 1013 10 16 0.00 0.00
7:52 am 07:52 Sunny 65 18.3 48 8.9 54 54 SSE 13 20 29.93 1014 10 16 0.00 0.00
8:52 am 08:52 Sunny 68 20 50 10 53 53 S 13 20 29.95 1014 10 16 0.00 0.00
9:52 am 09:52 Sunny 71 21.7 50 10 47 47 S 14 22 29.95 1014 10 16 0.00 0.00
10:52 am 10:52 Sunny 74 23.3 52 11.1 46 46 SSE 17 28 29.92 1013 10 16 0.00 0.00
11:52 am 11:52 Sunny 74 23.3 54 12.2 50 50 S 14 22 29.92 1013 10 16 0.00 0.00
12:52 pm 12:52 Sunny 76 24.4 55 12.8 48 48 SSE 18 30 29.90 1013 10 16 0.00 0.00
1:52 pm 13:52 Sunny 77 25 56 13.3 48 48 SE 16 26 29.89 1012 10 16 0.00 0.00
2:52 pm 14:52 Sunny 78 25.6 57 13.9 48 48 SW 10 17 29.91 1013 10 16 0.00 0.00
3:52 pm 15:52 Sunny 76 24.4 56 13.3 50 50 SSW 7 11 29.89 1012 10 16 0.00 0.00
4:52 pm 16:52 Cloudy with Light Rain 72 22.2 60 15.6 66 66 W 5 7 29.93 1013 5 8 0.00 0.03
4:58 pm 16:58 Cloudy with Heavy Rain 70 21 61 16 73 73 WSW 10 17 29.91 1013 2 3 0.00 0.00
5:07 pm 17:07 Cloudy with Rain 68 20 61 16.1 78 78 W 8 13 29.94 1014 3 5 0.07 1.78
5:52 pm 17:52 Cloudy with Light Rain 65 18.3 62 16.7 90 90 W 8 13 29.94 1014 5 8 0.13 3.30
6:52 pm 18:52 Cloudy with Light Rain 66 18.9 63 17.2 90 90 SE 10 17 29.87 1012 8 13 0.10 2.54
7:17 pm 19:17 Mostly Cloudy with Light Rain 66 18.9 63 17.2 90 90 S 8 13 29.88 1012 10 16 0.00 0.03
7:52 pm 19:52 Mostly Sunny 65 18.3 62 16.7 90 90 SSE 7 11 29.88 1012 10 16 0.00 0.03
8:52 pm 20:52 Clear 64 17.8 61 16.1 90 90 SE 7 11 29.87 1012 10 16 0.00 0.00
9:52 pm 21:52 Clear 63 17.2 61 16.1 93 93 S 10 17 29.88 1012 10 16 0.00 0.00
10:23 pm 22:23 Mostly Clear 63 17.2 61 16.1 93 93 S 13 20 29.88 1012 9 14 0.00 0.00
10:36 pm 22:36 Mostly Cloudy 63 17 61 16 94 94 S 14 22 29.88 1012 7 11 0.00 0.00
10:52 pm 22:52 Cloudy 63 17.2 61 16.1 93 93 S 14 22 29.89 1012 9 14 0.00 0.00
11:48 pm 23:48 Mostly Cloudy 63 17 61 16 94 94 SSE 7 11 29.91 1013 9 14 0.00 0.00
11:52 pm 23:52 Mostly Cloudy 63 17.2 60 15.6 90 90 SSE 6 9 29.90 1013 9 14 0.00 0.00

Powered by AerisWeather